Regional Weather Roundup
Issued by NWS Newport/Morehead, NC

Current Version | Previous Version | Text Only | Print | Product List | Glossary Off
Versions: 1 2 3 4 5 6 7 8 9 10 11 12 13 14 15 16 17 18 19 20 21 22 23 24 25 26 27 28 29 30 31 32 33 34 35 36 37 38 39 40 41 42 43 44 45 46 47 48 49 50
000 ASUS42 KMHX 241310 RWRMHX WEATHER ROUNDUP FOR EASTERN NORTH CAROLINA NATIONAL WEATHER SERVICE NEWPORT/MOREHEAD CITY NC 800 AM EST MON NOV 24 2014 NOTE: "FAIR" INDICATES FEW OR NO CLOUDS BELOW 12,000 FEET WITH NO SIGNIFICANT WEATHER AND/OR OBSTRUCTIONS TO VISIBILITY NCZ015>017-031-032-045>047-102-103-241400- NORTH COAST CITY SKY/WX TMP DP RH WIND PRES REMARKS EDENTON MOSUNNY 64 64 97 S12 29.84R ELIZABETH CITY MOSUNNY 70 64 81 S15G24 29.83R KITTY HAWK CLOUDY 65 65 97 S8G16 29.84F FOG MANTEO FOG 62 62 99 S15 29.87S VSB 3/4 $$ NCZ045>047-081-094-103-104-241400- CENTRAL COAST CITY SKY/WX TMP DP RH WIND PRES REMARKS FRISCO CLOUDY 68 67 96 SW9 29.89R FOG SWANQUARTER N/A 61 N/A N/A S12 29.85S $$ NCZ095-097-098-100-101-241400- SOUTHERN COAST CITY SKY/WX TMP DP RH WIND PRES REMARKS BEAUFORT CLOUDY 66 65 96 SW6 29.89S FOG CEDAR ISLAND N/A 66 N/A N/A W5 29.94R JACKSONVILLE LGT RAIN 66 65 96 S3 29.88R FOG PINEY ISLAND LGT RAIN 70 67 90 S7 29.89R WILMINGTON CLOUDY 69 67 93 SW12 29.88R $$ NCZ011>013-027>030-043-044-078>080-089-090>093-098-241400- COASTAL PLAIN CITY SKY/WX TMP DP RH WIND PRES REMARKS AHOSKIE SUNNY 64 60 87 S5 29.83R CLINTON CLOUDY 66 66 100 SW3 29.87R ELIZABETHTOWN CLOUDY 66 66 100 S3 29.86R GOLDSBORO PTSUNNY 65 65 99 CALM 29.84R GREENVILLE MOSUNNY 66 64 94 SW7 29.87R HAVELOCK RAIN 67 65 93 S7 29.89R KENANSVILLE CLOUDY 66 65 96 CALM 29.87R KINSTON PTSUNNY 66 66 100 S8 29.86R NEW BERN RAIN 69 66 90 S7 29.88R FOG RICHLANDS CLOUDY 66 63 88 S7 29.88R ROCKY MOUNT SUNNY 63 61 93 S9 29.84R WASHINGTON PTSUNNY 66 65 94 S6 29.85R WHITEVILLE CLOUDY 67 65 95 S6 29.87R $$ AMZ130-135-150-152-154-156-158-170-250-252-270-ANZ085-086-088-633-658-670-241400- MARINE OBSERVATIONS STATION/POSITION TIME TEMP WIND PRES WAVE SWELL AIR SEA DIR/SP/G HT/PER HT/PER (UTC) (F) (DEG/KT/KT) (MB) (FT/S) (FT/S) CHESAPEAKE LIGHT 1200 62 200/ 28/ 28 1008.5 64 E VA BEACH 1300 69 64 200/ 21/ 27 1009.9 13/10 10/10 DUCK 1300 63 56 200/ 12/ 16 1009.7 2 E DUCK 1300 58 N/A 8/11 5/11 10 NE DUCK 1300 58 N/A 10/11 5/11 OREGON INLET 1300 60 54 190/ 13/ 15 1011.8 13E OREGON INLT 1300 62 N/A 10/11 3/11 HATTERAS CG 1300 67 61 220/ 5/ 8 1012.8 DIAMOND BUOY 1300 74 190/ 19/ 23 1012.2 11/10 8/10 17 S OCRACOKE NOT AVBL CAPE LOOKOUT 1200 64 190/ 9/ 10 1011.8 BEAUFORT LAB 1300 65 57 220/ 3/ 5 1011.3 30 SE NEW RIVER 1300 72 70 210/ 17/ 21 1012.2 10/ 9 8/ 9 5 SE WRIGHTSVLE 1200 59 60 200/ 8/ 10 1010.8 225 S CAPE HAT 1157 75 73 200/ 19/ 25 1017.4 10/ 8 41 SE CHARLESTON 1300 75 75 230/ 25/ 29 1011.6 9/10 7/10 $$

USA.gov is the U.S. government's official web portal to all federal, state and local government web resources and services.